Tracking 20621 objects as of 30-Mar-2020
HD Live streaming from Space Station
objects crossing your sky now

SL-8 R/B

Track SL-8 R/B now!
10-day predictions


NORAD ID: 28421
Int'l Code: 2004-037C
Perigee: 1,479.1 km
Apogee: 1,511.4 km
Inclination: 82.5 °
Period: 115.7 minutes
Semi major axis: 7866 km
RCS: 5.1924 m2 (large)
Launch date: September 23, 2004
Source: Commonwealth of Independent States (former USSR) (CIS)
Launch site: PLESETSK MISSILE AND SPACE COMPLEX (PKMTR)

Note: This is a ROCKET BODY
aabbcc
Your satellite tracking list
Your tracking list is empty




NASA's NSSDC Master Catalog

Two Line Element Set (TLE):
1 28421U 04037C   20090.44612678 -.00000047  00000-0 -40465-3 0  9995
2 28421  82.4808 314.6599 0020563 234.0619 176.5740 12.44372343704809
Source of the keplerian elements: AFSPC